| time (UTC) | temp F | wind direction | speed knots | gust knots | rain 1hr in | rain 24hr in | rain mn in | humidity % | barometer mb |
| 20260507140526 | 62 | 351 | 1.7 | 2.6 | 0.00 | 0.00 | 0.00 | 47 | 1013.1 |
| 20260507140023 | 60 | 122 | 0.9 | 0.9 | 0.00 | 0.00 | 0.00 | 47 | 1013.3 |
| 20260507135520 | 58 | 112 | 0.9 | 1.7 | 0.00 | 0.00 | 0.00 | 48 | 1013.5 |
| 20260507135017 | 58 | 83 | 1.7 | 1.7 | 0.00 | 0.00 | 0.00 | 47 | 1013.6 |
| 20260507134514 | 58 | 357 | 0.9 | 0.9 | 0.00 | 0.00 | 0.00 | 49 | 1013.5 |
| 20260507134009 | 57 | 264 | 0.0 | 0.9 | 0.00 | 0.00 | 0.00 | 48 | 1013.7 |
| 20260507133506 | 57 | 273 | 1.7 | 1.7 | 0.00 | 0.00 | 0.00 | 48 | 1013.5 |
| 20260507133004 | 58 | 48 | 0.0 | 0.9 | 0.00 | 0.00 | 0.00 | 50 | 1013.7 |
| 20260507132500 | 57 | 273 | 0.0 | 0.9 | 0.00 | 0.00 | 0.00 | 53 | 1013.6 |
| 20260507131956 | 57 | 35 | 0.9 | 0.9 | 0.00 | 0.00 | 0.00 | 51 | 1013.7 |
| 20260507131454 | 56 | 260 | 0.0 | 0.9 | 0.00 | 0.00 | 0.00 | 53 | 1013.6 |
| 20260507130950 | 56 | 260 | 0.9 | 0.9 | 0.00 | 0.00 | 0.00 | 52 | 1013.6 |
| 20260507130447 | 56 | 37 | 0.0 | 0.0 | 0.00 | 0.00 | 0.00 | 53 | 1013.8 |
| 20260507125946 | 56 | 50 | 0.0 | 0.9 | 0.00 | 0.00 | 0.00 | 54 | 1013.8 |
| 20260507125444 | 56 | 252 | 0.9 | 0.9 | 0.00 | 0.00 | 0.00 | 52 | 1013.7 |
| 20260507124941 | 55 | 247 | 0.0 | 0.0 | 0.00 | 0.00 | 0.00 | 54 | 1013.6 |
| 20260507124437 | 55 | 290 | 0.9 | 0.9 | 0.00 | 0.00 | 0.00 | 55 | 1013.5 |
| 20260507123936 | 55 | 297 | 0.9 | 0.9 | 0.00 | 0.00 | 0.00 | 55 | 1013.7 |
| 20260507123433 | 55 | 275 | 0.0 | 0.0 | 0.00 | 0.00 | 0.00 | 56 | 1013.6 |
| 20260507122929 | 55 | 254 | 0.0 | 0.0 | 0.00 | 0.00 | 0.00 | 57 | 1013.7 |
| 20260507122424 | 55 | 130 | 1.7 | 1.7 | 0.00 | 0.00 | 0.00 | 55 | 1013.6 |
| 20260507121921 | 54 | 296 | 0.0 | 0.0 | 0.00 | 0.00 | 0.00 | 55 | 1013.4 |
| 20260507121416 | 54 | 276 | 0.9 | 0.9 | 0.00 | 0.00 | 0.00 | 56 | 1013.5 |
| 20260507120913 | 54 | 282 | 0.0 | 0.0 | 0.00 | 0.00 | 0.00 | 57 | 1013.4 |
| 20260507120409 | 54 | 285 | 0.0 | 0.0 | 0.00 | 0.00 | 0.00 | 57 | 1013.4 |
| 20260507115906 | 54 | 359 | 0.0 | 0.0 | 0.00 | 0.00 | 0.00 | 59 | 1013.5 |
| 20260507115402 | 54 | 4 | 0.0 | 0.9 | 0.00 | 0.00 | 0.00 | 59 | 1013.5 |
| 20260507114857 | 54 | 13 | 0.0 | 0.0 | 0.00 | 0.00 | 0.00 | 58 | 1013.3 |
| 20260507114354 | 54 | 10 | 0.0 | 0.0 | 0.00 | 0.00 | 0.00 | 58 | 1013.2 |
| 20260507113852 | 54 | 12 | 0.0 | 0.0 | 0.00 | 0.00 | 0.00 | 59 | 1013.5 |
| 20260507113349 | 54 | 7 | 0.0 | 0.0 | 0.00 | 0.00 | 0.00 | 57 | 1013.2 |
| 20260507112846 | 54 | 8 | 0.0 | 0.9 | 0.00 | 0.00 | 0.00 | 58 | 1013.4 |
| 20260507112343 | 54 | 6 | 0.0 | 0.0 | 0.00 | 0.00 | 0.00 | 57 | 1013.4 |
| 20260507111841 | 53 | 270 | 0.0 | 0.9 | 0.00 | 0.00 | 0.00 | 56 | 1013.4 |
| 20260507111338 | 53 | 298 | 0.0 | 0.9 | 0.00 | 0.00 | 0.00 | 59 | 1013.2 |
| 20260507110833 | 53 | 243 | 0.0 | 0.0 | 0.00 | 0.00 | 0.00 | 60 | 1013.4 |
| 20260507110330 | 54 | 245 | 0.0 | 0.0 | 0.00 | 0.00 | 0.00 | 60 | 1013.4 |
| 20260507105827 | 54 | 247 | 0.0 | 0.0 | 0.00 | 0.00 | 0.00 | 59 | 1013.3 |
| 20260507105324 | 54 | 243 | 0.0 | 0.0 | 0.00 | 0.00 | 0.00 | 59 | 1013.1 |
| 20260507104820 | 53 | 148 | 0.9 | 0.9 | 0.00 | 0.00 | 0.00 | 61 | 1013.1 |
| 20260507104317 | 53 | 104 | 0.0 | 0.0 | 0.00 | 0.00 | 0.00 | 62 | 1013.0 |
| 20260507103813 | 53 | 100 | 0.0 | 0.0 | 0.00 | 0.00 | 0.00 | 63 | 1012.8 |
| 20260507103309 | 53 | 88 | 0.0 | 0.9 | 0.00 | 0.00 | 0.00 | 63 | 1012.8 |
| 20260507102806 | 53 | 77 | 0.0 | 0.0 | 0.00 | 0.00 | 0.00 | 63 | 1012.8 |
| 20260507102306 | 53 | 88 | 0.0 | 0.9 | 0.00 | 0.00 | 0.00 | 64 | 1012.8 |
| 20260507101759 | 53 | 57 | 0.0 | 0.0 | 0.00 | 0.00 | 0.00 | 64 | 1012.7 |
| 20260507101254 | 53 | 24 | 0.0 | 0.0 | 0.00 | 0.00 | 0.00 | 64 | 1012.6 |
| 20260507100751 | 53 | 348 | 0.0 | 0.0 | 0.00 | 0.00 | 0.00 | 63 | 1012.6 |
| 20260507100249 | 53 | 3 | 0.0 | 0.0 | 0.00 | 0.00 | 0.00 | 65 | 1012.4 |
| 20260507095747 | 54 | 358 | 0.0 | 0.0 | 0.00 | 0.00 | 0.00 | 67 | 1012.3 |
| 20260507095243 | 54 | 47 | 0.0 | 0.0 | 0.00 | 0.00 | 0.00 | 68 | 1012.0 |
| 20260507094740 | 54 | 125 | 0.0 | 0.0 | 0.00 | 0.00 | 0.00 | 71 | 1012.3 |
| 20260507094237 | 54 | 88 | 0.0 | 0.0 | 0.00 | 0.00 | 0.00 | 71 | 1012.2 |
| 20260507093734 | 54 | 74 | 0.0 | 0.0 | 0.00 | 0.00 | 0.00 | 72 | 1012.2 |
| 20260507093233 | 54 | 11 | 0.0 | 0.0 | 0.00 | 0.00 | 0.00 | 73 | 1012.1 |
| 20260507092730 | 54 | 89 | 0.0 | 0.9 | 0.00 | 0.00 | 0.00 | 74 | 1012.3 |
| 20260507092226 | 54 | 135 | 0.0 | 0.0 | 0.00 | 0.00 | 0.00 | 75 | 1012.3 |
| 20260507091722 | 54 | 129 | 0.0 | 0.0 | 0.00 | 0.00 | 0.00 | 75 | 1012.3 |
| 20260507091219 | 54 | 85 | 0.0 | 0.0 | 0.00 | 0.00 | 0.00 | 74 | 1012.5 |
| 20260507090719 | 55 | 84 | 0.0 | 0.0 | 0.00 | 0.00 | 0.00 | 74 | 1012.4 |
| 20260507090216 | 55 | 127 | 0.9 | 1.7 | 0.00 | 0.00 | 0.00 | 74 | 1012.4 |
| 20260507085713 | 55 | 207 | 1.7 | 1.7 | 0.00 | 0.00 | 0.00 | 73 | 1012.3 |
| 20260507085210 | 55 | 235 | 0.0 | 0.0 | 0.00 | 0.00 | 0.00 | 73 | 1012.3 |
| 20260507084707 | 55 | 123 | 0.9 | 0.9 | 0.00 | 0.00 | 0.00 | 74 | 1012.1 |
| 20260507084204 | 55 | 172 | 0.0 | 0.0 | 0.00 | 0.00 | 0.00 | 74 | 1012.0 |
| 20260507083701 | 55 | 307 | 0.9 | 0.9 | 0.00 | 0.00 | 0.00 | 74 | 1012.0 |
| 20260507083158 | 55 | 220 | 0.0 | 0.0 | 0.00 | 0.00 | 0.00 | 74 | 1012.0 |
| 20260507082653 | 55 | 279 | 1.7 | 1.7 | 0.00 | 0.00 | 0.00 | 73 | 1012.0 |
| 20260507082150 | 55 | 226 | 0.0 | 0.0 | 0.00 | 0.00 | 0.00 | 74 | 1011.9 |
| 20260507081647 | 55 | 190 | 0.0 | 0.0 | 0.00 | 0.00 | 0.00 | 73 | 1011.9 |
| 20260507081143 | 55 | 276 | 0.0 | 0.9 | 0.00 | 0.00 | 0.00 | 73 | 1012.0 |
| 20260507080639 | 55 | 188 | 0.9 | 0.9 | 0.00 | 0.00 | 0.00 | 74 | 1011.6 |
| 20260507080136 | 55 | 175 | 0.0 | 0.0 | 0.00 | 0.00 | 0.00 | 73 | 1011.7 |
| 20260507075631 | 55 | 229 | 0.0 | 0.0 | 0.00 | 0.00 | 0.00 | 73 | 1011.5 |
| 20260507075127 | 55 | 143 | 0.0 | 0.0 | 0.00 | 0.00 | 0.00 | 73 | 1011.5 |
| 20260507074624 | 55 | 265 | 0.0 | 0.9 | 0.00 | 0.00 | 0.00 | 72 | 1011.7 |
| 20260507074123 | 56 | 244 | 0.9 | 0.9 | 0.00 | 0.00 | 0.00 | 71 | 1011.7 |
| 20260507073618 | 56 | 141 | 0.9 | 0.9 | 0.00 | 0.00 | 0.00 | 71 | 1011.5 |
| 20260507073115 | 56 | 8 | 0.9 | 0.9 | 0.00 | 0.00 | 0.00 | 71 | 1011.3 |
| 20260507072613 | 56 | 157 | 0.9 | 1.7 | 0.00 | 0.00 | 0.00 | 72 | 1011.3 |
| 20260507072109 | 56 | 218 | 0.0 | 0.0 | 0.00 | 0.00 | 0.00 | 72 | 1011.4 |
| 20260507071607 | 56 | 202 | 0.9 | 0.9 | 0.00 | 0.00 | 0.00 | 73 | 1011.4 |
| 20260507071103 | 56 | 192 | 0.0 | 0.9 | 0.00 | 0.00 | 0.00 | 73 | 1011.5 |
| 20260507070600 | 56 | 70 | 0.0 | 0.9 | 0.00 | 0.00 | 0.00 | 72 | 1011.7 |
| 20260507070058 | 56 | 155 | 0.0 | 0.9 | 0.00 | 0.00 | 0.00 | 72 | 1011.7 |
| 20260507065554 | 56 | 138 | 0.9 | 0.9 | 0.00 | 0.00 | 0.00 | 71 | 1011.8 |
| 20260507065051 | 56 | 141 | 0.9 | 0.9 | 0.00 | 0.00 | 0.00 | 72 | 1012.1 |
| 20260507064549 | 56 | 225 | 0.9 | 0.9 | 0.00 | 0.00 | 0.00 | 73 | 1012.0 |
| 20260507064047 | 57 | 257 | 0.0 | 0.9 | 0.00 | 0.00 | 0.00 | 74 | 1011.8 |
| 20260507063544 | 57 | 263 | 0.0 | 0.9 | 0.00 | 0.00 | 0.00 | 74 | 1011.8 |
| 20260507063041 | 57 | 41 | 0.9 | 1.7 | 0.00 | 0.00 | 0.00 | 75 | 1011.8 |
| 20260507062538 | 57 | 33 | 0.0 | 0.0 | 0.00 | 0.00 | 0.00 | 75 | 1012.0 |
| 20260507062035 | 57 | 273 | 0.0 | 0.0 | 0.00 | 0.00 | 0.00 | 76 | 1011.9 |
| 20260507061533 | 57 | 12 | 0.0 | 0.0 | 0.00 | 0.00 | 0.00 | 76 | 1012.0 |
| 20260507061031 | 57 | 7 | 0.0 | 0.0 | 0.00 | 0.00 | 0.00 | 77 | 1012.0 |
| 20260507060529 | 57 | 87 | 0.0 | 0.0 | 0.00 | 0.00 | 0.00 | 77 | 1011.9 |
| 20260507060025 | 57 | 108 | 0.0 | 0.0 | 0.00 | 0.00 | 0.00 | 77 | 1011.9 |
| 20260507055520 | 57 | 64 | 1.7 | 1.7 | 0.00 | 0.00 | 0.00 | 77 | 1012.0 |
| 20260507055016 | 57 | 155 | 0.0 | 0.9 | 0.00 | 0.00 | 0.00 | 78 | 1011.8 |
| 20260507054512 | 57 | 235 | 0.0 | 0.0 | 0.00 | 0.00 | 0.00 | 78 | 1011.6 |
| 20260507054009 | 57 | 231 | 0.0 | 0.0 | 0.00 | 0.00 | 0.00 | 77 | 1011.5 |
| 20260507053508 | 57 | 212 | 0.0 | 0.0 | 0.00 | 0.00 | 0.00 | 77 | 1011.6 |
| 20260507053006 | 57 | 254 | 0.9 | 0.9 | 0.00 | 0.00 | 0.00 | 77 | 1011.7 |
| 20260507052503 | 57 | 175 | 0.9 | 0.9 | 0.00 | 0.00 | 0.00 | 77 | 1011.6 |
| 20260507051959 | 57 | 220 | 0.0 | 0.0 | 0.00 | 0.00 | 0.00 | 77 | 1011.8 |
| 20260507051457 | 57 | 214 | 0.0 | 0.0 | 0.00 | 0.00 | 0.00 | 77 | 1011.7 |
| 20260507050954 | 57 | 96 | 0.9 | 1.7 | 0.00 | 0.00 | 0.00 | 78 | 1011.6 |
| 20260507050450 | 57 | 76 | 0.0 | 0.9 | 0.00 | 0.00 | 0.00 | 78 | 1011.7 |
| 20260507045947 | 57 | 88 | 1.7 | 1.7 | 0.00 | 0.00 | 0.00 | 79 | 1011.7 |
| 20260507045444 | 57 | 35 | 0.9 | 2.6 | 0.00 | 0.00 | 0.00 | 80 | 1011.8 |
| 20260507044941 | 57 | 135 | 0.0 | 0.0 | 0.00 | 0.00 | 0.00 | 81 | 1011.7 |
| 20260507044438 | 57 | 102 | 0.0 | 0.0 | 0.00 | 0.00 | 0.00 | 80 | 1011.5 |
| 20260507043934 | 58 | 135 | 0.0 | 0.0 | 0.00 | 0.00 | 0.00 | 81 | 1011.5 |
| 20260507043430 | 58 | 140 | 0.0 | 0.0 | 0.00 | 0.00 | 0.00 | 81 | 1011.6 |
| 20260507042927 | 58 | 29 | 0.0 | 0.0 | 0.00 | 0.00 | 0.00 | 81 | 1011.8 |
| 20260507042424 | 58 | 195 | 0.9 | 0.9 | 0.00 | 0.00 | 0.00 | 81 | 1011.6 |
| 20260507041919 | 58 | 198 | 0.0 | 0.0 | 0.00 | 0.00 | 0.00 | 81 | 1011.8 |
| 20260507041416 | 58 | 216 | 0.0 | 0.0 | 0.00 | 0.00 | 0.00 | 80 | 1011.8 |
| 20260507040914 | 59 | 278 | 1.7 | 2.6 | 0.00 | 0.00 | 0.00 | 80 | 1011.2 |
| 20260507040409 | 59 | 215 | 0.9 | 0.9 | 0.00 | 0.00 | 0.00 | 81 | 1011.6 |
| 20260507035905 | 59 | 99 | 0.9 | 0.9 | 0.00 | 0.15 | 0.15 | 81 | 1011.2 |
| 20260507035402 | 59 | 333 | 0.0 | 0.9 | 0.00 | 0.15 | 0.15 | 81 | 1011.3 |
| 20260507034859 | 59 | 100 | 0.0 | 0.9 | 0.00 | 0.15 | 0.15 | 81 | 1011.3 |
| 20260507034355 | 59 | 225 | 0.0 | 0.0 | 0.00 | 0.15 | 0.15 | 81 | 1011.3 |
| 20260507033853 | 59 | 298 | 1.7 | 1.7 | 0.00 | 0.15 | 0.15 | 80 | 1011.2 |
| 20260507033351 | 59 | 231 | 0.9 | 0.9 | 0.00 | 0.15 | 0.15 | 80 | 1011.3 |
| 20260507032848 | 59 | 267 | 0.9 | 0.9 | 0.00 | 0.15 | 0.15 | 79 | 1011.4 |
| 20260507032345 | 60 | 177 | 0.9 | 0.9 | 0.00 | 0.15 | 0.15 | 80 | 1011.2 |
| 20260507031841 | 60 | 230 | 1.7 | 1.7 | 0.00 | 0.15 | 0.15 | 80 | 1011.2 |
| 20260507031338 | 60 | 256 | 0.0 | 0.0 | 0.00 | 0.15 | 0.15 | 79 | 1011.2 |
| 20260507030834 | 60 | 219 | 0.9 | 0.9 | 0.00 | 0.15 | 0.15 | 79 | 1011.2 |
| 20260507030332 | 60 | 273 | 0.0 | 0.9 | 0.00 | 0.15 | 0.15 | 79 | 1011.2 |
| 20260507025828 | 60 | 225 | 0.9 | 0.9 | 0.00 | 0.15 | 0.15 | 78 | 1011.1 |
| 20260507025326 | 60 | 243 | 0.9 | 1.7 | 0.00 | 0.15 | 0.15 | 79 | 1011.0 |
| 20260507024824 | 60 | 215 | 0.9 | 0.9 | 0.00 | 0.15 | 0.15 | 79 | 1010.8 |
| 20260507024321 | 60 | 273 | 1.7 | 1.7 | 0.00 | 0.15 | 0.15 | 78 | 1010.8 |
| 20260507023816 | 60 | 258 | 1.7 | 1.7 | 0.00 | 0.15 | 0.15 | 78 | 1010.9 |
| 20260507023313 | 60 | 287 | 0.0 | 0.9 | 0.00 | 0.15 | 0.15 | 78 | 1010.9 |
| 20260507022810 | 60 | 202 | 0.0 | 0.9 | 0.00 | 0.15 | 0.15 | 78 | 1011.0 |
| 20260507022307 | 61 | 290 | 0.9 | 0.9 | 0.00 | 0.15 | 0.15 | 78 | 1010.9 |
| 20260507021803 | 61 | 280 | 1.7 | 1.7 | 0.00 | 0.15 | 0.15 | 79 | 1010.8 |
| 20260507021259 | 61 | 230 | 0.9 | 0.9 | 0.00 | 0.15 | 0.15 | 79 | 1010.8 |
| 20260507020757 | 61 | 240 | 0.9 | 0.9 | 0.00 | 0.15 | 0.15 | 80 | 1010.7 |
| 20260507020253 | 61 | 277 | 0.9 | 0.9 | 0.00 | 0.15 | 0.15 | 80 | 1010.6 |
| 20260507015751 | 61 | 5 | 1.7 | 2.6 | 0.00 | 0.15 | 0.15 | 82 | 1010.8 |
| 20260507015248 | 61 | 89 | 0.9 | 0.9 | 0.00 | 0.15 | 0.15 | 82 | 1010.7 |
| 20260507014745 | 62 | 126 | 0.0 | 0.0 | 0.00 | 0.15 | 0.15 | 81 | 1010.9 |
| 20260507014241 | 62 | 21 | 0.9 | 0.9 | 0.00 | 0.15 | 0.15 | 81 | 1010.8 |
| 20260507013738 | 62 | 48 | 0.9 | 1.7 | 0.00 | 0.15 | 0.15 | 82 | 1010.5 |
| 20260507013235 | 62 | 123 | 0.0 | 0.0 | 0.00 | 0.15 | 0.15 | 83 | 1010.4 |
| 20260507012732 | 62 | 152 | 0.0 | 0.0 | 0.00 | 0.15 | 0.15 | 82 | 1010.4 |
| 20260507012228 | 63 | 146 | 0.0 | 0.9 | 0.00 | 0.15 | 0.15 | 81 | 1010.4 |
| 20260507011726 | 62 | 226 | 0.9 | 0.9 | 0.00 | 0.15 | 0.15 | 79 | 1010.3 |
| 20260507011222 | 63 | 247 | 0.0 | 0.0 | 0.00 | 0.15 | 0.15 | 81 | 1010.4 |
| 20260507010721 | 63 | 190 | 0.9 | 0.9 | 0.00 | 0.15 | 0.15 | 81 | 1010.6 |
| 20260507010218 | 63 | 238 | 0.9 | 0.9 | 0.00 | 0.15 | 0.15 | 81 | 1010.8 |
| 20260507005715 | 64 | 191 | 0.9 | 0.9 | 0.00 | 0.15 | 0.15 | 81 | 1010.9 |
| 20260507005211 | 64 | 309 | 0.9 | 0.9 | 0.00 | 0.15 | 0.15 | 83 | 1010.5 |
| 20260507004708 | 64 | 237 | 0.9 | 0.9 | 0.00 | 0.15 | 0.15 | 84 | 1010.6 |
| 20260507004206 | 64 | 265 | 0.0 | 0.0 | 0.00 | 0.15 | 0.15 | 85 | 1010.3 |
| 20260507003702 | 64 | 241 | 0.9 | 1.7 | 0.00 | 0.15 | 0.15 | 83 | 1010.1 |
| 20260507003157 | 64 | 225 | 0.0 | 0.0 | 0.00 | 0.15 | 0.15 | 86 | 1010.4 |
| 20260507002653 | 64 | 222 | 0.0 | 0.9 | 0.00 | 0.15 | 0.15 | 87 | 1010.4 |
| 20260507002149 | 64 | 236 | 0.0 | 0.9 | 0.00 | 0.15 | 0.15 | 88 | 1010.0 |
| 20260507001647 | 64 | 287 | 0.9 | 1.7 | 0.00 | 0.15 | 0.15 | 88 | 1010.0 |
| 20260507001144 | 64 | 203 | 0.0 | 0.9 | 0.00 | 0.15 | 0.15 | 89 | 1009.9 |
| 20260507000640 | 65 | 218 | 0.0 | 0.0 | 0.00 | 0.15 | 0.15 | 90 | 1009.8 |
| 20260507000135 | 65 | 215 | 0.0 | 0.0 | 0.00 | 0.15 | 0.15 | 91 | 1009.6 |
| 20260506235633 | 65 | 188 | 0.0 | 0.9 | 0.00 | 0.15 | 0.15 | 90 | 1009.6 |
| 20260506235133 | 65 | 221 | 0.0 | 0.9 | 0.00 | 0.15 | 0.15 | 90 | 1009.7 |
| 20260506234631 | 65 | 227 | 0.0 | 0.9 | 0.00 | 0.15 | 0.15 | 90 | 1009.4 |
| 20260506234128 | 65 | 217 | 0.0 | 0.0 | 0.00 | 0.15 | 0.15 | 90 | 1009.2 |
| 20260506233625 | 65 | 224 | 0.0 | 0.0 | 0.00 | 0.15 | 0.15 | 89 | 1008.9 |
| 20260506233122 | 66 | 213 | 0.0 | 0.0 | 0.00 | 0.15 | 0.15 | 89 | 1008.8 |
| 20260506232618 | 66 | 240 | 0.0 | 0.9 | 0.00 | 0.15 | 0.15 | 89 | 1008.9 |
| 20260506232113 | 66 | 232 | 0.0 | 0.9 | 0.00 | 0.15 | 0.15 | 88 | 1008.9 |
| 20260506231611 | 66 | 220 | 0.9 | 0.9 | 0.00 | 0.15 | 0.15 | 88 | 1008.7 |
| 20260506231109 | 67 | 230 | 0.9 | 0.9 | 0.00 | 0.15 | 0.15 | 88 | 1008.8 |
| 20260506230605 | 67 | 199 | 0.9 | 0.9 | 0.00 | 0.15 | 0.15 | 87 | 1008.8 |
| 20260506230103 | 67 | 230 | 0.9 | 0.9 | 0.31 | 0.15 | 0.15 | 86 | 1008.7 |
| 20260506225559 | 68 | 159 | 0.0 | 0.9 | 0.31 | 0.15 | 0.15 | 86 | 1008.6 |
| 20260506225055 | 69 | 259 | 0.9 | 0.9 | 0.00 | 0.10 | 0.10 | 86 | 1008.6 |
| 20260506224553 | 69 | 240 | 0.9 | 1.7 | 0.00 | 0.10 | 0.10 | 84 | 1008.6 |
| 20260506224049 | 69 | 238 | 0.0 | 0.0 | 0.00 | 0.10 | 0.10 | 84 | 1008.6 |
| 20260506223545 | 69 | 200 | 0.0 | 0.9 | 0.00 | 0.10 | 0.10 | 84 | 1008.5 |
| 20260506223042 | 69 | 222 | 0.9 | 0.9 | 0.00 | 0.10 | 0.10 | 83 | 1008.4 |
| 20260506222539 | 69 | 219 | 0.9 | 0.9 | 0.00 | 0.10 | 0.10 | 83 | 1008.6 |
| 20260506222035 | 70 | 214 | 0.0 | 0.0 | 0.00 | 0.10 | 0.10 | 83 | 1008.3 |
| 20260506221532 | 69 | 224 | 0.9 | 0.9 | 0.00 | 0.10 | 0.10 | 83 | 1008.4 |
| 20260506221030 | 70 | 200 | 1.7 | 1.7 | 0.00 | 0.10 | 0.10 | 82 | 1008.5 |
| 20260506220526 | 71 | 186 | 0.9 | 0.9 | 0.00 | 0.10 | 0.10 | 83 | 1008.3 |
| 20260506220021 | 70 | 231 | 0.9 | 0.9 | 0.00 | 0.10 | 0.10 | 82 | 1008.3 |
| 20260506215519 | 69 | 203 | 0.9 | 1.7 | 0.00 | 0.10 | 0.10 | 83 | 1008.5 |
| 20260506215014 | 69 | 200 | 0.0 | 0.9 | 0.00 | 0.10 | 0.10 | 84 | 1008.5 |
| 20260506214512 | 69 | 188 | 0.9 | 1.7 | 0.00 | 0.10 | 0.10 | 84 | 1008.7 |
| 20260506214009 | 69 | 209 | 0.0 | 0.9 | 0.00 | 0.10 | 0.10 | 84 | 1008.3 |
| 20260506213507 | 69 | 223 | 0.9 | 0.9 | 0.00 | 0.10 | 0.10 | 85 | 1008.4 |
| 20260506213004 | 68 | 227 | 0.9 | 0.9 | 0.00 | 0.10 | 0.10 | 85 | 1008.3 |
| 20260506212500 | 68 | 223 | 0.9 | 1.7 | 0.00 | 0.10 | 0.10 | 85 | 1008.5 |
| 20260506211954 | 68 | 199 | 0.9 | 0.9 | 0.00 | 0.10 | 0.10 | 86 | 1008.1 |
| 20260506211451 | 68 | 198 | 0.0 | 0.0 | 0.00 | 0.10 | 0.10 | 89 | 1008.0 |
| 20260506210948 | 67 | 190 | 0.9 | 0.9 | 0.00 | 0.10 | 0.10 | 89 | 1007.8 |
| 20260506210444 | 67 | 239 | 0.9 | 0.9 | 0.00 | 0.10 | 0.10 | 90 | 1008.0 |
| 20260506205942 | 66 | 162 | 0.0 | 0.9 | 0.05 | 0.10 | 0.10 | 90 | 1007.8 |
| 20260506205438 | 66 | 238 | 0.9 | 0.9 | 0.05 | 0.10 | 0.10 | 92 | 1008.2 |
| 20260506204934 | 66 | 188 | 0.9 | 0.9 | 0.00 | 0.09 | 0.09 | 92 | 1008.0 |
| 20260506204432 | 66 | 218 | 0.0 | 0.0 | 0.00 | 0.09 | 0.09 | 92 | 1007.9 |
| 20260506203929 | 66 | 195 | 0.0 | 0.9 | 0.00 | 0.09 | 0.09 | 91 | 1007.9 |
| 20260506203426 | 66 | 193 | 0.0 | 0.0 | 0.00 | 0.09 | 0.09 | 91 | 1007.8 |
| 20260506202923 | 66 | 172 | 0.0 | 0.0 | 0.00 | 0.09 | 0.09 | 91 | 1007.7 |
| 20260506202420 | 66 | 183 | 0.9 | 0.9 | 0.07 | 0.09 | 0.09 | 91 | 1008.0 |
| 20260506201917 | 66 | 172 | 0.9 | 0.9 | 0.07 | 0.09 | 0.09 | 91 | 1007.9 |
| 20260506201414 | 66 | 188 | 0.0 | 0.0 | 0.00 | 0.08 | 0.08 | 89 | 1007.9 |
| 20260506200911 | 66 | 190 | 0.9 | 0.9 | 0.00 | 0.08 | 0.08 | 89 | 1007.9 |
| 20260506200407 | 66 | 177 | 0.0 | 0.9 | 0.00 | 0.08 | 0.08 | 88 | 1008.0 |
| 20260506195904 | 67 | 169 | 1.7 | 1.7 | 0.00 | 0.08 | 0.08 | 87 | 1007.9 |
| 20260506195401 | 67 | 192 | 0.9 | 0.9 | 0.00 | 0.08 | 0.08 | 86 | 1008.0 |
| 20260506194857 | 67 | 183 | 0.9 | 0.9 | 0.00 | 0.08 | 0.08 | 86 | 1008.0 |
| 20260506194354 | 67 | 205 | 0.9 | 0.9 | 0.00 | 0.08 | 0.08 | 88 | 1007.9 |
| 20260506193852 | 67 | 189 | 0.9 | 0.9 | 0.00 | 0.08 | 0.08 | 87 | 1008.0 |
| 20260506193348 | 67 | 177 | 0.9 | 1.7 | 0.00 | 0.08 | 0.08 | 88 | 1008.1 |
| 20260506192844 | 67 | 185 | 0.9 | 1.7 | 0.00 | 0.08 | 0.08 | 87 | 1008.1 |
| 20260506192341 | 67 | 166 | 1.7 | 1.7 | 0.00 | 0.08 | 0.08 | 86 | 1008.3 |
| 20260506191838 | 67 | 166 | 2.6 | 2.6 | 0.00 | 0.08 | 0.08 | 86 | 1007.9 |
| 20260506191334 | 67 | 190 | 0.9 | 1.7 | 0.00 | 0.08 | 0.08 | 85 | 1008.1 |
| 20260506190832 | 67 | 170 | 2.6 | 3.5 | 0.00 | 0.08 | 0.08 | 86 | 1008.0 |
| 20260506190328 | 67 | 241 | 2.6 | 2.6 | 0.00 | 0.08 | 0.08 | 85 | 1008.1 |
| 20260506185825 | 67 | 169 | 1.7 | 1.7 | 0.00 | 0.08 | 0.08 | 85 | 1008.0 |
| 20260506185322 | 67 | 174 | 0.9 | 0.9 | 0.00 | 0.08 | 0.08 | 86 | 1008.1 |
| 20260506184819 | 67 | 171 | 0.9 | 0.9 | 0.00 | 0.08 | 0.08 | 86 | 1008.2 |
| 20260506184316 | 66 | 216 | 0.9 | 1.7 | 0.00 | 0.08 | 0.08 | 87 | 1008.1 |
| 20260506183814 | 67 | 213 | 0.9 | 1.7 | 0.00 | 0.08 | 0.08 | 86 | 1008.3 |
| 20260506183309 | 67 | 214 | 0.9 | 0.9 | 0.00 | 0.08 | 0.08 | 86 | 1008.3 |
| 20260506182806 | 66 | 191 | 0.9 | 0.9 | 0.00 | 0.08 | 0.08 | 87 | 1008.2 |
| 20260506182306 | 66 | 191 | 1.7 | 1.7 | 0.00 | 0.08 | 0.08 | 87 | 1008.3 |
| 20260506181801 | 66 | 167 | 1.7 | 2.6 | 0.00 | 0.08 | 0.08 | 88 | 1008.4 |
| 20260506181259 | 66 | 187 | 0.9 | 0.9 | 0.00 | 0.08 | 0.08 | 89 | 1008.3 |
| 20260506180755 | 66 | 187 | 0.0 | 0.0 | 0.00 | 0.08 | 0.08 | 89 | 1008.4 |
| 20260506180251 | 66 | 173 | 1.7 | 2.6 | 0.00 | 0.08 | 0.08 | 89 | 1008.5 |
| 20260506175748 | 66 | 206 | 1.7 | 1.7 | 0.00 | 0.08 | 0.08 | 88 | 1008.4 |
| 20260506175245 | 65 | 178 | 0.9 | 1.7 | 0.00 | 0.08 | 0.08 | 88 | 1008.4 |
| 20260506174742 | 65 | 193 | 2.6 | 2.6 | 0.00 | 0.08 | 0.08 | 89 | 1008.7 |
| 20260506174239 | 65 | 192 | 1.7 | 2.6 | 0.00 | 0.08 | 0.08 | 89 | 1008.5 |
| 20260506173737 | 65 | 171 | 1.7 | 2.6 | 0.00 | 0.08 | 0.08 | 89 | 1008.5 |
| 20260506173233 | 65 | 222 | 1.7 | 2.6 | 0.00 | 0.08 | 0.08 | 89 | 1008.5 |
| 20260506172730 | 65 | 206 | 3.5 | 5.2 | 0.00 | 0.08 | 0.08 | 88 | 1008.5 |
| 20260506172227 | 65 | 184 | 1.7 | 1.7 | 0.00 | 0.08 | 0.08 | 88 | 1008.5 |
| 20260506171725 | 66 | 218 | 3.5 | 5.2 | 0.00 | 0.08 | 0.08 | 88 | 1008.5 |
| 20260506171222 | 66 | 197 | 1.7 | 2.6 | 0.00 | 0.08 | 0.08 | 88 | 1008.5 |
| 20260506170719 | 65 | 187 | 2.6 | 2.6 | 0.00 | 0.08 | 0.08 | 88 | 1008.6 |
| 20260506170216 | 65 | 175 | 3.5 | 3.5 | 0.00 | 0.08 | 0.08 | 89 | 1008.6 |
| 20260506165714 | 65 | 207 | 1.7 | 2.6 | 0.00 | 0.08 | 0.08 | 89 | 1008.7 |
| 20260506165211 | 65 | 251 | 1.7 | 1.7 | 0.00 | 0.08 | 0.08 | 89 | 1008.5 |
| 20260506164708 | 65 | 219 | 1.7 | 2.6 | 0.00 | 0.08 | 0.08 | 90 | 1008.7 |
| 20260506164205 | 64 | 226 | 1.7 | 3.5 | 0.00 | 0.08 | 0.08 | 91 | 1008.6 |
| 20260506163701 | 64 | 203 | 4.3 | 5.2 | 0.00 | 0.08 | 0.08 | 91 | 1008.7 |
| 20260506163156 | 64 | 235 | 2.6 | 3.5 | 0.00 | 0.08 | 0.08 | 92 | 1008.7 |
| 20260506162653 | 63 | 246 | 3.5 | 5.2 | 0.00 | 0.08 | 0.08 | 92 | 1008.8 |
| 20260506162150 | 63 | 185 | 2.6 | 2.6 | 0.00 | 0.08 | 0.08 | 92 | 1008.9 |
| 20260506161647 | 63 | 234 | 1.7 | 2.6 | 0.00 | 0.08 | 0.08 | 93 | 1008.9 |
| 20260506161144 | 62 | 226 | 2.6 | 3.5 | 0.00 | 0.08 | 0.08 | 93 | 1008.7 |
| 20260506160642 | 62 | 205 | 1.7 | 1.7 | 0.00 | 0.08 | 0.08 | 94 | 1008.6 |
| 20260506160139 | 62 | 167 | 1.7 | 2.6 | 0.00 | 0.08 | 0.08 | 95 | 1008.7 |
| 20260506155637 | 62 | 228 | 3.5 | 3.5 | 0.00 | 0.08 | 0.08 | 94 | 1008.8 |
| 20260506155134 | 62 | 232 | 3.5 | 5.2 | 0.00 | 0.08 | 0.08 | 95 | 1008.8 |
| 20260506153230 | 62 | 220 | 1.7 | 1.7 | 0.00 | 0.08 | 0.08 | 95 | 1008.8 |
| 20260506152727 | 62 | 209 | 3.5 | 5.2 | 0.00 | 0.08 | 0.08 | 95 | 1008.9 |
| 20260506152224 | 62 | 251 | 3.5 | 3.5 | 0.00 | 0.08 | 0.08 | 96 | 1008.9 |
| 20260506151724 | 62 | 180 | 1.7 | 1.7 | 0.00 | 0.08 | 0.08 | 96 | 1008.9 |
| 20260506151219 | 62 | 211 | 1.7 | 2.6 | 0.00 | 0.08 | 0.08 | 96 | 1008.9 |
| 20260506150716 | 62 | 204 | 1.7 | 2.6 | 0.00 | 0.08 | 0.08 | 96 | 1009.1 |
| 20260506150213 | 62 | 209 | 3.5 | 5.2 | 0.00 | 0.08 | 0.08 | 96 | 1009.0 |
| 20260506145710 | 62 | 178 | 2.6 | 3.5 | 0.00 | 0.08 | 0.08 | 97 | 1009.0 |
| 20260506145206 | 62 | 197 | 2.6 | 3.5 | 0.00 | 0.08 | 0.08 | 97 | 1008.8 |
| 20260506144704 | 61 | 181 | 1.7 | 3.5 | 0.00 | 0.08 | 0.08 | 97 | 1009.1 |
| 20260506144201 | 61 | 242 | 2.6 | 2.6 | 0.00 | 0.08 | 0.08 | 97 | 1009.2 |
| 20260506143659 | 61 | 220 | 2.6 | 3.5 | 0.00 | 0.08 | 0.08 | 96 | 1009.5 |
| 20260506143156 | 61 | 248 | 2.6 | 2.6 | 0.00 | 0.08 | 0.08 | 97 | 1009.7 |
| 20260506142654 | 61 | 240 | 3.5 | 3.5 | 0.00 | 0.08 | 0.08 | 96 | 1009.6 |
| 20260506142152 | 61 | 194 | 1.7 | 2.6 | 0.00 | 0.08 | 0.08 | 96 | 1009.3 |
| 20260506141649 | 61 | 184 | 2.6 | 3.5 | 0.00 | 0.08 | 0.08 | 96 | 1009.7 |
| 20260506141148 | 61 | 241 | 2.6 | 3.5 | 0.00 | 0.08 | 0.08 | 96 | 1009.4 |